Nasa Shuttle Landing Facility Airport
KTTS : now visible

Airfield :











YOU CAN JOIN US ON...

 
LOGIN :

Register | Disclaimer

   EN    FR    IT 

 









Legend :    VFR   Marginal VFR   IFR   Intensive IFR   Very Intensive IFR
Visi :
Ceiling :
>= 8 km
>= 3000ft
5 to 8 km
1000 to 3000 ft
1500m to 5 km
500 to 1000 ft
800 to 1500m
200 to 500 ft
< 800m
< 200 ft
Symbols :   Thunderstorms  Fog  Heavy snow  Heavy precipitations  Wind > 20 kt






- Airport Elevation : 10 ft


KTTS - Nasa Shuttle Landing Facility

CURRENT METAR :
  • 211156Z 00000KT 10SM OVC080 24/22 A2996 RMK AO2A SLP150 T02390143 10239 20220 52008 FZRANO $

EXPIRED METARs :
  • 211056Z 00000KT 10SM OVC085 23/23 A2995 RMK AO2A SLP146 T02340230 FZRANO $
  • 210956Z 01003KT 10SM OVC085 23/22 A2994 RMK AO2A SLP143 T02280220 FZRANO $

Expired Forecast.



MET'MAP, your aeronautical weather chart ! - Copyright ORBIFLY December 2007 - Disclaimer

ORBIFLY MET'MAP TEAM :

Programming & Development : Alexandra Zaïnal
Concept & Development : Baudouin d'Aumeries
Co-Development & Prog : Marc-Olivier Méhu
Technical & hardware support : Manuel Goepfert

Contact : metmap@orbifly.com




SOURCES & CREDITS :

   NOAA       Earth
Advisory